Location: Te Maire Creek
(41.1333°S, 175.9167°E)
Time: 01:50:38
(UTC+00:00)

USA 234 - Pass Details

Date: 19 May 2024
Orbit: 1100 x 1107 km, 123.0° (Epoch: 16 June)

Event Time Altitude Azimuth Distance (km) Brightness Sun altitude
Rises 17:38:24 0° 134° (SE) 3,958 6.7 -19.3°
Reaches altitude 10° 17:40:54 10° 135° (SE) 2,996 6.0 -18.9°
Maximum altitude 17:47:31 76° 219° (SW) 1,151 3.2 -17.6°
Drops below altitude 10° 17:54:05 10° 303° (WNW) 2,974 5.1 -16.4°
Enters shadow 17:54:08 10° 303° (WNW) 2,996 5.1 -16.4°
